BEIDOU-3S IGSO-2S

Last updated on Sun Jun 21 2026 00:03:06 GMT+0000 (Coordinated Universal Time)

1 40938U 15053A 26170.70984358 -.00000143 00000+0 00000+0 0 9995 2 40938 49.2167 258.7515 0065583 192.2245 167.5336 1.00258902 39370
UTC large
Height (km)
Speed (km/s)
/
Latitude / Longitude
Inclination (degrees)
Orbital Period (minutes)
Azimuth
Elevation
Range (km)
Doppler Factor

Next 0 passes for location: London (51.5072 / 0.1276)

No passes found over London.
BEIDOU-3S IGSO-2S